DW2047 Weather Reports


time (UTC)temp
F
wind
direction
speed
knots
gust
knots
rain 1hr
in
rain 24hr
in
rain mn
in
humidity
%
barometer
mb
20220627210059 98 345 3.5 0.0 0.00 0.00 0.00 40 1016.8
20220627205605 98 10 3.5 0.0 0.00 0.00 0.00 41 1016.8
20220627205007 98 349 3.5 0.0 0.00 0.00 0.00 40 1016.8
20220627204511 98 112 3.5 0.0 0.00 0.00 0.00 42 1016.9
20220627204019 98 9 3.5 0.0 0.00 0.00 0.00 41 1017.1
20220627203517 98 355 3.5 0.0 0.00 0.00 0.00 42 1017.2
20220627203103 98 335 3.5 0.0 0.00 0.00 0.00 41 1017.4
20220627202508 98 24 4.3 0.0 0.00 0.00 0.00 42 1017.4
20220627202013 98 5 3.5 0.0 0.00 0.00 0.00 42 1017.5
20220627201608 98 344 3.5 0.0 0.00 0.00 0.00 42 1017.6
20220627201103 98 63 3.5 0.0 0.00 0.00 0.00 42 1017.7
20220627200504 98 78 4.3 0.0 0.00 0.00 0.00 43 1017.8
20220627200004 98 343 3.5 0.0 0.00 0.00 0.00 42 1018.0
20220627195508 98 44 3.5 0.0 0.00 0.00 0.00 43 1018.1
20220627195015 97 335 3.5 0.0 0.00 0.00 0.00 43 1018.2
20220627194514 97 105 3.5 0.0 0.00 0.00 0.00 45 1018.2
20220627194019 97 326 2.6 0.0 0.00 0.00 0.00 44 1018.3
20220627193517 97 68 2.6 0.0 0.00 0.00 0.00 44 1018.4
20220627193002 97 318 3.5 0.0 0.00 0.00 0.00 44 1018.5
20220627192504 96 24 3.5 0.0 0.00 0.00 0.00 45 1018.5
20220627192009 96 65 3.5 0.0 0.00 0.00 0.00 46 1018.5
20220627191514 96 335 2.6 0.0 0.00 0.00 0.00 46 1018.7
20220627191106 96 346 3.5 0.0 0.00 0.00 0.00 46 1018.7
20220627190608 96 355 3.5 0.0 0.00 0.00 0.00 48 1018.9
20220627190009 95 40 3.5 0.0 0.00 0.00 0.00 47 1019.0
20220627185600 95 5 2.6 0.0 0.00 0.00 0.00 46 1019.1
20220627185105 95 5 3.5 0.0 0.00 0.00 0.00 46 1019.1
20220627184503 95 338 3.5 0.0 0.00 0.00 0.00 45 1019.2
20220627184004 95 344 4.3 0.0 0.00 0.00 0.00 46 1019.4
20220627183503 95 58 3.5 0.0 0.00 0.00 0.00 47 1019.3
20220627183010 94 44 3.5 0.0 0.00 0.00 0.00 50 1019.5
20220627182509 94 355 3.5 0.0 0.00 0.00 0.00 49 1019.6
20220627182019 93 55 3.5 0.0 0.00 0.00 0.00 49 1019.8
20220627181518 93 52 3.5 0.0 0.00 0.00 0.00 49 1019.9
20220627181001 92 350 3.5 0.0 0.00 0.00 0.00 48 1019.9
20220627180513 92 313 3.5 0.0 0.00 0.00 0.00 49 1020.0
20220627180015 92 346 3.5 0.0 0.00 0.00 0.00 48 1020.1
20220627175527 92 50 2.6 0.0 0.00 0.00 0.00 52 1020.0
20220627175025 92 334 2.6 0.0 0.00 0.00 0.00 51 1020.1
20220627174536 92 23 2.6 0.0 0.00 0.00 0.00 50 1020.2
20220627174032 92 335 2.6 0.0 0.00 0.00 0.00 50 1020.3
20220627173527 92 347 3.5 0.0 0.00 0.00 0.00 50 1020.4
20220627173012 92 5 3.5 0.0 0.00 0.00 0.00 52 1020.4
20220627172600 91 341 3.5 0.0 0.00 0.00 0.00 54 1020.4
20220627172059 91 28 3.5 0.0 0.00 0.00 0.00 54 1020.4
20220627171605 90 338 3.5 0.0 0.00 0.00 0.00 53 1020.5
20220627171002 90 339 1.7 0.0 0.00 0.00 0.00 52 1020.5
20220627170502 90 349 2.6 0.0 0.00 0.00 0.00 53 1020.5
20220627170006 90 332 2.6 0.0 0.00 0.00 0.00 54 1020.5
20220627165505 89 329 3.5 0.0 0.00 0.00 0.00 55 1020.5
20220627165005 89 323 3.5 0.0 0.00 0.00 0.00 55 1020.6
20220627164510 88 315 3.5 0.0 0.00 0.00 0.00 56 1020.6
20220627164103 88 292 3.5 0.0 0.00 0.00 0.00 56 1020.5
20220627163551 88 327 3.5 0.0 0.00 0.00 0.00 55 1020.6
20220627163057 89 315 3.5 0.0 0.00 0.00 0.00 55 1020.6
20220627162558 88 342 2.6 0.0 0.00 0.00 0.00 57 1020.5
20220627162105 88 36 2.6 0.0 0.00 0.00 0.00 58 1020.6
20220627161502 88 348 2.6 0.0 0.00 0.00 0.00 56 1020.6
20220627161001 88 355 2.6 0.0 0.00 0.00 0.00 57 1020.6
20220627160507 88 333 2.6 0.0 0.00 0.00 0.00 58 1020.5
20220627160015 87 342 1.7 0.0 0.00 0.00 0.00 59 1020.4
20220627155510 87 340 2.6 0.0 0.00 0.00 0.00 59 1020.5
20220627155059 86 355 2.6 0.0 0.00 0.00 0.00 61 1020.5
20220627154503 85 329 3.5 0.0 0.00 0.00 0.00 62 1020.6
20220627154101 85 317 3.5 0.0 0.00 0.00 0.00 62 1020.7
20220627153602 85 294 3.5 0.0 0.00 0.00 0.00 62 1020.7
20220627153003 85 355 2.6 0.0 0.00 0.00 0.00 62 1020.6
20220627152503 85 343 2.6 0.0 0.00 0.00 0.00 63 1020.7
20220627152011 85 336 2.6 0.0 0.00 0.00 0.00 63 1020.7
20220627151510 84 350 2.6 0.0 0.00 0.00 0.00 64 1020.7
20220627151008 84 322 2.6 0.0 0.00 0.00 0.00 64 1020.6
20220627150600 84 333 3.5 0.0 0.00 0.00 0.00 65 1020.6
20220627150006 83 348 2.6 0.0 0.00 0.00 0.00 65 1020.7
20220627145557 83 348 2.6 0.0 0.00 0.00 0.00 66 1020.7
20220627145109 83 5 3.5 0.0 0.00 0.00 0.00 66 1020.7
20220627144515 83 319 3.5 0.0 0.00 0.00 0.00 67 1020.8
20220627144059 82 341 3.5 0.0 0.00 0.00 0.00 67 1020.9
20220627143606 82 314 4.3 0.0 0.00 0.00 0.00 68 1020.8
20220627143005 82 329 4.3 0.0 0.00 0.00 0.00 68 1020.8
20220627142559 82 295 4.3 0.0 0.00 0.00 0.00 68 1020.8
20220627142003 82 17 3.5 0.0 0.00 0.00 0.00 69 1020.9
20220627141600 81 344 2.6 0.0 0.00 0.00 0.00 69 1020.9
20220627141047 81 46 3.5 0.0 0.00 0.00 0.00 70 1020.9
20220627140556 81 344 5.2 0.0 0.00 0.00 0.00 70 1020.9
20220627140100 81 317 4.3 0.0 0.00 0.00 0.00 70 1020.9
20220627135504 80 325 4.3 0.0 0.00 0.00 0.00 71 1020.9
20220627135006 80 350 4.3 0.0 0.00 0.00 0.00 71 1020.8
20220627134509 80 355 4.3 0.0 0.00 0.00 0.00 72 1020.8
20220627134101 80 277 3.5 0.0 0.00 0.00 0.00 71 1020.7
20220627133513 80 337 3.5 0.0 0.00 0.00 0.00 72 1020.9
20220627133015 80 330 3.5 0.0 0.00 0.00 0.00 71 1020.9
20220627132606 80 335 3.5 0.0 0.00 0.00 0.00 71 1020.8
20220627132006 81 355 3.5 0.0 0.00 0.00 0.00 72 1020.8
20220627131508 80 329 4.3 0.0 0.00 0.00 0.00 72 1020.6
20220627131010 80 350 4.3 0.0 0.00 0.00 0.00 73 1020.6
20220627130514 80 355 4.3 0.0 0.00 0.00 0.00 73 1020.4
20220627130003 80 315 3.5 0.0 0.00 0.00 0.00 73 1020.5
20220627125510 80 343 2.6 0.0 0.00 0.00 0.00 73 1020.4
20220627125013 80 346 2.6 0.0 0.00 0.00 0.00 73 1020.5
20220627124605 80 71 2.6 0.0 0.00 0.00 0.00 74 1020.4
20220627124004 80 323 1.7 0.0 0.00 0.00 0.00 74 1020.3
20220627123508 80 41 1.7 0.0 0.00 0.00 0.00 75 1020.2
20220627123058 79 343 1.7 0.0 0.00 0.00 0.00 75 1020.2
20220627122606 79 336 0.9 0.0 0.00 0.00 0.00 74 1020.2
20220627122007 78 336 0.9 0.0 0.00 0.00 0.00 74 1020.1
20220627121606 78 336 0.9 0.0 0.00 0.00 0.00 73 1020.1
20220627121044 78 336 0.9 0.0 0.00 0.00 0.00 72 1020.0
20220627120554 78 336 0.0 0.0 0.00 0.00 0.00 71 1019.9
20220627120001 77 336 0.0 0.0 0.00 0.00 0.00 71 1019.9
20220627115505 77 336 0.0 0.0 0.00 0.00 0.00 71 1019.9
20220627115007 77 336 0.0 0.0 0.00 0.00 0.00 71 1019.9
20220627114516 77 336 0.0 0.0 0.00 0.00 0.00 71 1019.8
20220627114001 77 336 0.0 0.0 0.00 0.00 0.00 71 1019.7
20220627113509 77 336 0.0 0.0 0.00 0.00 0.00 71 1019.6
20220627113106 77 336 0.0 0.0 0.00 0.00 0.00 71 1019.5
20220627112503 77 336 0.0 0.0 0.00 0.00 0.00 71 1019.4
20220627112012 77 336 0.0 0.0 0.00 0.00 0.00 71 1019.4
20220627111602 77 336 0.0 0.0 0.00 0.00 0.00 71 1019.4
20220627111006 77 336 0.0 0.0 0.00 0.00 0.00 70 1019.3
20220627110504 77 336 0.0 0.0 0.00 0.00 0.00 70 1019.2
20220627110011 77 336 0.0 0.0 0.00 0.00 0.00 70 1019.1
20220627105520 77 336 0.0 0.0 0.00 0.00 0.00 70 1019.1
20220627105004 77 336 0.0 0.0 0.00 0.00 0.00 70 1019.0
20220627104508 77 336 0.0 0.0 0.00 0.00 0.00 70 1018.9
20220627104014 77 336 0.0 0.0 0.00 0.00 0.00 69 1018.9
20220627103607 77 336 0.0 0.0 0.00 0.00 0.00 68 1018.9
20220627103001 77 336 0.0 0.0 0.00 0.00 0.00 68 1018.9
20220627102507 77 336 0.0 0.0 0.00 0.00 0.00 68 1018.9
20220627102004 78 336 0.0 0.0 0.00 0.00 0.00 68 1018.9
20220627101517 78 336 0.0 0.0 0.00 0.00 0.00 68 1019.0
20220627101018 78 336 0.0 0.0 0.00 0.00 0.00 68 1019.1
20220627100606 78 336 0.0 0.0 0.00 0.00 0.00 67 1019.0
20220627100113 78 336 0.0 0.0 0.00 0.00 0.00 67 1019.1
20220627095510 79 336 0.0 0.0 0.00 0.00 0.00 67 1019.2
20220627095014 79 336 0.0 0.0 0.00 0.00 0.00 67 1019.1
20220627094526 79 336 0.0 0.0 0.00 0.00 0.00 67 1019.1
20220627094021 79 336 0.0 0.0 0.00 0.00 0.00 67 1019.0
20220627093503 79 336 0.0 0.0 0.00 0.00 0.00 66 1019.0
20220627093009 79 336 0.0 0.0 0.00 0.00 0.00 67 1019.1
20220627092514 80 336 0.0 0.0 0.00 0.00 0.00 66 1018.9
20220627092014 80 336 0.0 0.0 0.00 0.00 0.00 65 1018.9
20220627091606 80 336 0.0 0.0 0.00 0.00 0.00 64 1019.0
20220627091108 80 336 0.0 0.0 0.00 0.00 0.00 63 1019.2
20220627090510 81 336 0.0 0.0 0.00 0.00 0.00 63 1019.1
20220627090100 81 336 0.0 0.0 0.00 0.00 0.00 62 1019.2
20220627085502 81 336 0.0 0.0 0.00 0.00 0.00 62 1019.3
20220627085006 82 336 0.0 0.0 0.00 0.00 0.00 61 1019.3
20220627084514 82 336 0.0 0.0 0.00 0.00 0.00 61 1019.1
20220627084003 82 336 0.0 0.0 0.00 0.00 0.00 61 1019.3
20220627083510 82 336 0.0 0.0 0.00 0.00 0.00 60 1019.5
20220627083102 82 336 0.0 0.0 0.00 0.00 0.00 60 1019.6
20220627082509 83 336 0.0 0.0 0.00 0.00 0.00 61 1019.7
20220627082011 83 336 0.0 0.0 0.00 0.00 0.00 61 1019.6
20220627081605 83 336 0.0 0.0 0.00 0.00 0.00 61 1019.6
20220627081002 83 336 0.9 0.0 0.00 0.00 0.00 60 1019.6
20220627080510 83 336 0.9 0.0 0.00 0.00 0.00 60 1019.5
20220627080057 83 338 0.9 0.0 0.00 0.00 0.00 60 1019.5
20220627075558 83 308 1.7 0.0 0.00 0.00 0.00 61 1019.4
20220627075103 83 290 1.7 0.0 0.00 0.00 0.00 61 1019.3
20220627074502 83 331 1.7 0.0 0.00 0.00 0.00 61 1019.4
20220627074007 83 355 1.7 0.0 0.00 0.00 0.00 61 1019.3
20220627073515 83 355 1.7 0.0 0.00 0.00 0.00 61 1019.4
20220627073003 83 333 0.9 0.0 0.00 0.00 0.00 63 1019.3
20220627072505 83 194 0.0 0.0 0.00 0.00 0.00 62 1019.0
20220627072012 83 194 0.0 0.0 0.00 0.00 0.00 62 1018.8
20220627071605 83 194 0.0 0.0 0.00 0.00 0.00 61 1018.8
20220627071006 83 194 0.9 0.0 0.00 0.00 0.00 61 1018.8
20220627070600 83 194 0.9 0.0 0.00 0.00 0.00 60 1018.9
20220627070059 83 202 0.9 0.0 0.00 0.00 0.00 60 1018.9
20220627065506 84 151 1.7 0.0 0.00 0.00 0.00 59 1018.9
20220627065102 84 182 1.7 0.0 0.00 0.00 0.00 59 1018.8
20220627064546 84 187 0.9 0.0 0.00 0.00 0.00 58 1018.8
20220627064051 84 182 0.9 0.0 0.00 0.00 0.00 58 1018.8
20220627063558 84 186 0.9 0.0 0.00 0.00 0.00 58 1018.8
20220627063106 84 186 1.7 0.0 0.00 0.00 0.00 57 1018.8
20220627062510 84 186 1.7 0.0 0.00 0.00 0.00 57 1018.9
20220627062017 84 178 1.7 0.0 0.00 0.00 0.00 56 1018.9
20220627061506 83 162 1.7 0.0 0.00 0.00 0.00 56 1018.9
20220627061013 83 168 0.9 0.0 0.00 0.00 0.00 55 1018.7
20220627060515 83 166 1.7 0.0 0.00 0.00 0.00 56 1018.7
20220627060106 83 162 1.7 0.0 0.00 0.00 0.00 56 1018.8
20220627055507 82 148 0.9 0.0 0.00 0.00 0.00 57 1018.8
20220627055008 80 78 0.9 0.0 0.00 0.00 0.00 59 1018.8
20220627054511 80 78 0.9 0.0 0.00 0.00 0.00 59 1018.9
20220627054014 80 78 0.0 0.0 0.00 0.00 0.00 57 1018.8
20220627053516 80 78 0.0 0.0 0.00 0.00 0.00 56 1018.8
20220627053000 80 78 0.0 0.0 0.00 0.00 0.00 57 1018.7
20220627052505 80 78 0.0 0.0 0.00 0.00 0.00 57 1018.6
20220627052010 80 78 0.0 0.0 0.00 0.00 0.00 59 1018.6
20220627051535 80 78 0.0 0.0 0.00 0.00 0.00 59 1018.6
20220627051021 80 78 0.0 0.0 0.00 0.00 0.00 58 1018.6
20220627050519 80 78 0.0 0.0 0.00 0.00 0.00 57 1018.5
20220627050107 81 78 0.0 0.0 0.00 0.00 0.00 57 1018.5
20220627045513 81 78 0.0 0.0 0.00 0.00 0.00 56 1018.5
20220627045013 81 78 0.0 0.0 0.00 0.00 0.00 56 1018.4
20220627044604 81 78 0.0 0.0 0.00 0.00 0.00 55 1018.4
20220627044005 81 78 0.0 0.0 0.00 0.00 0.00 55 1018.3
20220627043558 82 78 0.0 0.0 0.00 0.00 0.00 54 1018.3
20220627043100 82 78 0.0 0.0 0.00 0.00 0.00 53 1018.3
20220627042504 82 78 0.0 0.0 0.00 0.00 0.00 52 1018.2
20220627042054 82 78 0.0 0.0 0.00 0.00 0.00 52 1018.3
20220627041504 82 78 0.0 0.0 0.00 0.00 0.00 52 1018.2
20220627041055 82 78 0.0 0.0 0.00 0.00 0.00 52 1018.1
20220627040600 83 78 0.0 0.0 0.00 0.00 0.00 51 1018.1
20220627040002 83 78 0.0 0.0 0.00 0.00 0.00 50 1018.0
20220627035555 83 78 0.0 0.0 0.00 0.00 0.00 49 1017.9
20220627035005 83 78 0.0 0.0 0.00 0.00 0.00 48 1017.8
20220627034601 83 78 0.0 0.0 0.00 0.00 0.00 48 1017.8
20220627034003 84 78 0.0 0.0 0.00 0.00 0.00 47 1017.7
20220627033555 84 78 0.0 0.0 0.00 0.00 0.00 46 1017.7
20220627033106 84 78 0.0 0.0 0.00 0.00 0.00 47 1017.7
20220627032502 85 78 0.0 0.0 0.00 0.00 0.00 45 1017.6
20220627032052 85 78 0.0 0.0 0.00 0.00 0.00 46 1017.6
20220627031600 85 78 0.0 0.0 0.00 0.00 0.00 45 1017.5
20220627031102 86 78 0.0 0.0 0.00 0.00 0.00 44 1017.4
20220627030607 86 78 0.0 0.0 0.00 0.00 0.00 44 1017.3
20220627030009 86 78 0.0 0.0 0.00 0.00 0.00 43 1017.3
20220627025600 87 78 0.0 0.0 0.00 0.00 0.00 42 1017.3
20220627025010 87 78 0.0 0.0 0.00 0.00 0.00 41 1017.2
20220627024601 88 78 0.0 0.0 0.00 0.00 0.00 41 1017.2
20220627024105 88 78 0.0 0.0 0.00 0.00 0.00 40 1017.1
20220627023505 88 78 0.0 0.0 0.00 0.00 0.00 40 1017.0
20220627023057 89 78 0.0 0.0 0.00 0.00 0.00 39 1017.0
20220627022604 89 78 0.9 0.0 0.00 0.00 0.00 39 1017.0
20220627022004 89 78 0.9 0.0 0.00 0.00 0.00 39 1017.1
20220627021558 90 78 0.9 0.0 0.00 0.00 0.00 39 1017.0
20220627021001 90 78 0.9 0.0 0.00 0.00 0.00 38 1016.9
20220627020559 91 78 0.9 0.0 0.00 0.00 0.00 38 1016.9
20220627020046 91 82 0.9 0.0 0.00 0.00 0.00 38 1016.8
20220627015552 91 82 0.9 0.0 0.00 0.00 0.00 37 1016.8
20220627015101 92 82 1.7 0.0 0.00 0.00 0.00 37 1016.8
20220627014502 92 104 1.7 0.0 0.00 0.00 0.00 36 1016.6
20220627014007 92 82 1.7 0.0 0.00 0.00 0.00 36 1016.6
20220627013514 93 101 1.7 0.0 0.00 0.00 0.00 36 1016.5
20220627013001 93 92 1.7 0.0 0.00 0.00 0.00 36 1016.5
20220627012507 94 61 1.7 0.0 0.00 0.00 0.00 36 1016.4
20220627012102 94 108 1.7 0.0 0.00 0.00 0.00 36 1016.4
20220627011552 94 80 2.6 0.0 0.00 0.00 0.00 36 1016.3
20220627011100 95 104 2.6 0.0 0.00 0.00 0.00 36 1016.2
20220627010550 95 78 2.6 0.0 0.00 0.00 0.00 36 1016.2
20220627010038 95 71 2.6 0.0 0.00 0.00 0.00 35 1016.2
20220627005544 96 97 2.6 0.0 0.00 0.00 0.00 35 1016.2
20220627005050 96 91 2.6 0.0 0.00 0.00 0.00 35 1016.1
20220627004553 96 140 1.7 0.0 0.00 0.00 0.00 35 1016.1
20220627004059 96 123 1.7 0.0 0.00 0.00 0.00 34 1016.1
20220627003509 96 117 1.7 0.0 0.00 0.00 0.00 33 1016.0
20220627003059 96 74 2.6 0.0 0.00 0.00 0.00 33 1015.9
20220627002606 97 137 2.6 0.0 0.00 0.00 0.00 33 1015.9
20220627002008 97 90 3.5 0.0 0.00 0.00 0.00 33 1015.9
20220627001605 97 140 2.6 0.0 0.00 0.00 0.00 33 1015.8
20220627001002 97 96 2.6 0.0 0.00 0.00 0.00 32 1015.7
20220627000600 97 88 2.6 0.0 0.00 0.00 0.00 31 1015.8
20220627000045 98 38 1.7 0.0 0.00 0.00 0.00 31 1015.7
20220626235553 98 90 2.6 0.0 0.00 0.00 0.00 31 1015.7
20220626235059 98 126 2.6 0.0 0.00 0.00 0.00 31 1015.7
20220626234502 98 84 2.6 0.0 0.00 0.00 0.00 31 1015.6
20220626234052 98 89 2.6 0.0 0.00 0.00 0.00 31 1015.7
20220626233557 98 105 2.6 0.0 0.00 0.00 0.00 31 1015.7
20220626233107 98 103 3.5 0.0 0.00 0.00 0.00 30 1015.6
20220626232504 99 117 3.5 0.0 0.00 0.00 0.00 31 1015.6
20220626232005 98 34 3.5 0.0 0.00 0.00 0.00 31 1015.6
20220626231508 98 63 3.5 0.0 0.00 0.00 0.00 31 1015.6
20220626231008 98 78 3.5 0.0 0.00 0.00 0.00 31 1015.7
20220626230513 98 86 3.5 0.0 0.00 0.00 0.00 31 1015.7
20220626230103 98 145 3.5 0.0 0.00 0.00 0.00 30 1015.8
20220626225603 98 148 2.6 0.0 0.00 0.00 0.00 32 1015.8
20220626225007 98 136 2.6 0.0 0.00 0.00 0.00 31 1015.8
20220626224601 98 153 2.6 0.0 0.00 0.00 0.00 32 1015.9
20220626224002 99 35 2.6 0.0 0.00 0.00 0.00 31 1016.0
20220626223559 99 65 2.6 0.0 0.00 0.00 0.00 31 1015.9
20220626223106 99 77 3.5 0.0 0.00 0.00 0.00 32 1015.9
20220626222512 99 92 2.6 0.0 0.00 0.00 0.00 31 1015.9
20220626222108 99 98 2.6 0.0 0.00 0.00 0.00 33 1016.0
20220626221549 99 123 2.6 0.0 0.00 0.00 0.00 31 1016.0
20220626221058 99 132 1.7 0.0 0.00 0.00 0.00 33 1016.1
20220626220602 99 130 3.5 0.0 0.00 0.00 0.00 32 1016.1
20220626220003 99 126 2.6 0.0 0.00 0.00 0.00 33 1016.3
20220626215558 99 59 2.6 0.0 0.00 0.00 0.00 34 1016.3
20220626215105 99 136 3.5 0.0 0.00 0.00 0.00 33 1016.3
20220626214506 98 142 3.5 0.0 0.00 0.00 0.00 33 1016.2
20220626214009 98 98 4.3 0.0 0.00 0.00 0.00 33 1016.4
20220626213515 98 100 6.1 0.0 0.00 0.00 0.00 34 1016.5
20220626213108 98 156 4.3 0.0 0.00 0.00 0.00 33 1016.5
20220626212510 99 117 2.6 0.0 0.00 0.00 0.00 32 1016.6
20220626212106 99 119 1.7 0.0 0.00 0.00 0.00 34 1016.6
20220626211608 100 109 3.5 0.0 0.00 0.00 0.00 32 1016.7
20220626211008 99 116 3.5 0.0 0.00 0.00 0.00 33 1016.6
20220626210558 99 342 2.6 0.0 0.00 0.00 0.00 33 1016.7